date,time,water_lv
2013-10-01,00:00:00,19.74
2013-10-01,00:10:00,19.74
2013-10-01,00:20:00,19.74
2013-10-01,00:30:00,19.74
2013-10-01,00:40:00,19.75
2013-10-01,00:50:00,19.75
2013-10-01,01:00:00,19.74
2013-10-01,01:10:00,19.74
2013-10-01,01:20:00,19.73
2013-10-01,01:30:00,19.74
2013-10-01,01:40:00,19.89
2013-10-01,01:50:00,19.88
2013-10-01,02:00:00,19.9
2013-10-01,02:10:00,19.9
2013-10-01,02:20:00,19.86
2013-10-01,02:30:00,19.88
2013-10-01,02:40:00,19.87
2013-10-01,02:50:00,19.73
2013-10-01,03:00:00,19.74
2013-10-01,03:10:00,19.89
2013-10-01,03:20:00,19.87
2013-10-01,03:30:00,19.85
2013-10-01,03:40:00,19.87
2013-10-01,03:50:00,19.75
2013-10-01,04:00:00,19.9
2013-10-01,04:10:00,19.85
2013-10-01,04:20:00,20.25
2013-10-01,04:30:00,20.21
2013-10-01,04:40:00,20.11
2013-10-01,04:50:00,19.85
2013-10-01,05:00:00,19.83
2013-10-01,05:10:00,19.83
2013-10-01,05:20:00,19.84
2013-10-01,05:30:00,19.83
2013-10-01,05:40:00,19.83
2013-10-01,05:50:00,20.76
2013-10-01,06:00:00,19.84
2013-10-01,06:10:00,19.89
2013-10-01,06:20:00,19.9
2013-10-01,06:30:00,19.88
2013-10-01,06:40:00,19.89
2013-10-01,06:50:00,19.84
2013-10-01,07:00:00,19.88
2013-10-01,07:10:00,19.86
2013-10-01,07:20:00,19.86
2013-10-01,07:30:00,19.87
2013-10-01,07:40:00,19.85
2013-10-01,07:50:00,19.86
2013-10-01,08:00:00,19.85
2013-10-01,08:10:00,19.85
2013-10-01,08:20:00,19.85
2013-10-01,08:30:00,19.86
2013-10-01,08:40:00,19.86
2013-10-01,08:50:00,19.86
2013-10-01,09:00:00,19.86
2013-10-01,09:10:00,19.86
2013-10-01,09:20:00,19.86
2013-10-01,09:30:00,19.87
2013-10-01,09:40:00,19.86
2013-10-01,09:50:00,19.86
2013-10-01,10:00:00,19.85
2013-10-01,10:10:00,19.86
2013-10-01,10:20:00,19.86
2013-10-01,10:30:00,19.86
2013-10-01,10:40:00,19.85
2013-10-01,10:50:00,19.86
2013-10-01,11:00:00,19.86
2013-10-01,11:10:00,19.86
2013-10-01,11:20:00,19.88
2013-10-01,11:30:00,19.88
2013-10-01,11:40:00,19.87
2013-10-01,11:50:00,19.86
2013-10-01,12:00:00,19.88
2013-10-01,12:10:00,19.87
2013-10-01,12:20:00,19.88
2013-10-01,12:30:00,19.87
2013-10-01,12:40:00,19.89
2013-10-01,12:50:00,20.26
2013-10-01,13:00:00,19.89
2013-10-01,13:10:00,19.92
2013-10-01,13:20:00,19.9
2013-10-01,13:30:00,19.89
2013-10-01,13:40:00,19.9
2013-10-01,13:50:00,19.9
2013-10-01,14:00:00,20.28
2013-10-01,14:10:00,19.86
2013-10-01,14:20:00,19.88
2013-10-01,14:30:00,19.88
2013-10-01,14:40:00,19.84
2013-10-01,14:50:00,19.84
2013-10-01,15:00:00,19.86
2013-10-01,15:10:00,19.88
2013-10-01,15:20:00,19.95
2013-10-01,15:30:00,19.98
2013-10-01,15:40:00,20.1
2013-10-01,15:50:00,19.89
2013-10-01,16:00:00,19.9
2013-10-01,16:10:00,19.89
2013-10-01,16:20:00,20.14
2013-10-01,16:30:00,19.84
2013-10-01,16:40:00,19.87
2013-10-01,16:50:00,19.88
2013-10-01,17:00:00,19.88
2013-10-01,17:10:00,20.3
2013-10-01,17:20:00,19.81
2013-10-01,17:30:00,19.78
2013-10-01,17:40:00,20.02
2013-10-01,17:50:00,19.81
2013-10-01,18:00:00,20.13
2013-10-01,18:10:00,19.78
2013-10-01,18:20:00,19.77
2013-10-01,18:30:00,19.75
2013-10-01,18:40:00,19.79
2013-10-01,18:50:00,19.79
2013-10-01,19:00:00,19.82
2013-10-01,19:10:00,19.81
2013-10-01,19:20:00,19.76
2013-10-01,19:30:00,19.8
2013-10-01,19:40:00,19.79
2013-10-01,19:50:00,19.78
2013-10-01,20:00:00,19.77
2013-10-01,20:10:00,19.77
2013-10-01,20:20:00,19.77
2013-10-01,20:30:00,19.79
2013-10-01,20:40:00,19.8
2013-10-01,20:50:00,19.79
2013-10-01,21:00:00,19.82
2013-10-01,21:10:00,19.81
2013-10-01,21:20:00,19.84
2013-10-01,21:30:00,19.84
2013-10-01,21:40:00,19.84
2013-10-01,21:50:00,19.85
2013-10-01,22:00:00,19.85
2013-10-01,22:10:00,19.84
2013-10-01,22:20:00,19.85
2013-10-01,22:30:00,19.84
2013-10-01,22:40:00,19.83
2013-10-01,22:50:00,19.82
2013-10-01,23:00:00,19.83
2013-10-01,23:10:00,19.83
2013-10-01,23:20:00,19.84
2013-10-01,23:30:00,19.84
2013-10-01,23:40:00,19.86
2013-10-01,23:50:00,19.86
2013-10-02,00:00:00,19.86
2013-10-02,00:10:00,19.85
2013-10-02,00:20:00,19.85
2013-10-02,00:30:00,19.84
2013-10-02,00:40:00,19.84
2013-10-02,00:50:00,19.85
2013-10-02,01:00:00,19.84
2013-10-02,01:10:00,19.85
2013-10-02,01:20:00,19.84
2013-10-02,01:30:00,19.85
2013-10-02,01:40:00,19.85
2013-10-02,01:50:00,19.85
2013-10-02,02:00:00,19.85
2013-10-02,02:10:00,19.85
2013-10-02,02:20:00,19.86
2013-10-02,02:30:00,19.85
2013-10-02,02:40:00,19.86
2013-10-02,02:50:00,19.85
2013-10-02,03:00:00,19.86
2013-10-02,03:10:00,19.86
2013-10-02,03:20:00,19.87
2013-10-02,03:30:00,19.86
2013-10-02,03:40:00,19.86
2013-10-02,03:50:00,19.85
2013-10-02,04:00:00,19.86
2013-10-02,04:10:00,19.85
2013-10-02,04:20:00,19.86
2013-10-02,04:30:00,19.85
2013-10-02,04:40:00,19.84
2013-10-02,04:50:00,19.85
2013-10-02,05:00:00,19.83
2013-10-02,05:10:00,19.82
2013-10-02,05:20:00,19.82
2013-10-02,05:30:00,19.83
2013-10-02,05:40:00,19.84
2013-10-02,05:50:00,20.39
2013-10-02,06:00:00,20.21
2013-10-02,06:10:00,20.19
2013-10-02,06:20:00,20.33
2013-10-02,06:30:00,20.96
2013-10-02,06:40:00,21.33
2013-10-02,06:50:00,20.93
2013-10-02,07:00:00,21.12
2013-10-02,07:10:00,20.63
2013-10-02,07:20:00,20.93
2013-10-02,07:30:00,21.22
2013-10-02,07:40:00,21.4
2013-10-02,07:50:00,21.32
2013-10-02,08:00:00,21.44
2013-10-02,08:10:00,21.86
2013-10-02,08:20:00,21.35
2013-10-02,08:30:00,21.21
2013-10-02,08:40:00,22.02
2013-10-02,08:50:00,21.18
2013-10-02,09:00:00,21.46
2013-10-02,09:10:00,20.79
2013-10-02,09:20:00,21.27
2013-10-02,09:30:00,20.75
2013-10-02,09:40:00,21.16
2013-10-02,09:50:00,21.24
2013-10-02,10:00:00,20.8
2013-10-02,10:10:00,21.33
2013-10-02,10:20:00,21.03
2013-10-02,10:30:00,20.82
2013-10-02,10:40:00,20.78
2013-10-02,10:50:00,20.76
2013-10-02,11:00:00,21.19
2013-10-02,11:10:00,21.38
2013-10-02,11:20:00,19.89
2013-10-02,11:30:00,19.88
2013-10-02,11:40:00,19.87
2013-10-02,11:50:00,19.85
2013-10-02,12:00:00,19.87
2013-10-02,12:10:00,19.91
2013-10-02,12:20:00,19.89
2013-10-02,12:30:00,19.81
2013-10-02,12:40:00,19.84
2013-10-02,12:50:00,19.87
2013-10-02,13:00:00,19.83
2013-10-02,13:10:00,19.88
2013-10-02,13:20:00,19.86
2013-10-02,13:30:00,19.89
2013-10-02,13:40:00,20.51
2013-10-02,13:50:00,21.33
2013-10-02,14:00:00,21.14
2013-10-02,14:10:00,21.18
2013-10-02,14:20:00,21.09
2013-10-02,14:30:00,20.82
2013-10-02,14:40:00,21.18
2013-10-02,14:50:00,20.94
2013-10-02,15:00:00,20.84
2013-10-02,15:10:00,20.83
2013-10-02,15:20:00,21.01
2013-10-02,15:30:00,21.03
2013-10-02,15:40:00,21.72
2013-10-02,15:50:00,22
2013-10-02,16:00:00,21.71
2013-10-02,16:10:00,21.01
2013-10-02,16:20:00,20.78
2013-10-02,16:30:00,20.89
2013-10-02,16:40:00,20.76
2013-10-02,16:50:00,20.83
2013-10-02,17:00:00,21.95
2013-10-02,17:10:00,20.84
2013-10-02,17:20:00,21.47
2013-10-02,17:30:00,21.85
2013-10-02,17:40:00,20.91
2013-10-02,17:50:00,20.86
2013-10-02,18:00:00,20.55
2013-10-02,18:10:00,20.89
2013-10-02,18:20:00,20.84
2013-10-02,18:30:00,19.85
2013-10-02,18:40:00,19.84
2013-10-02,18:50:00,19.85
2013-10-02,19:00:00,19.85
2013-10-02,19:10:00,19.84
2013-10-02,19:20:00,19.84
2013-10-02,19:30:00,19.85
2013-10-02,19:40:00,19.84
2013-10-02,19:50:00,19.85
2013-10-02,20:00:00,19.84
2013-10-02,20:10:00,19.83
2013-10-02,20:20:00,19.83
2013-10-02,20:30:00,19.84
2013-10-02,20:40:00,19.84
2013-10-02,20:50:00,19.85
2013-10-02,21:00:00,19.86
2013-10-02,21:10:00,19.85
2013-10-02,21:20:00,19.85
2013-10-02,21:30:00,19.84
2013-10-02,21:40:00,19.84
2013-10-02,21:50:00,19.84
2013-10-02,22:00:00,19.84
2013-10-02,22:10:00,19.84
2013-10-02,22:20:00,19.84
2013-10-02,22:30:00,19.84
2013-10-02,22:40:00,19.84
2013-10-02,22:50:00,19.84
2013-10-02,23:00:00,19.83
2013-10-02,23:10:00,19.83
2013-10-02,23:20:00,19.83
2013-10-02,23:30:00,19.83
2013-10-02,23:40:00,19.83
2013-10-02,23:50:00,19.83
2013-10-03,00:00:00,19.83
2013-10-03,00:10:00,19.84
2013-10-03,00:20:00,19.84
2013-10-03,00:30:00,19.84
2013-10-03,00:40:00,19.83
2013-10-03,00:50:00,19.83
2013-10-03,01:00:00,19.82
2013-10-03,01:10:00,19.83
2013-10-03,01:20:00,19.83
2013-10-03,01:30:00,19.82
2013-10-03,01:40:00,19.83
2013-10-03,01:50:00,19.84
2013-10-03,02:00:00,19.83
2013-10-03,02:10:00,19.83
2013-10-03,02:20:00,19.83
2013-10-03,02:30:00,19.83
2013-10-03,02:40:00,19.83
2013-10-03,02:50:00,19.81
2013-10-03,03:00:00,19.82
2013-10-03,03:10:00,19.82
2013-10-03,03:20:00,19.81
2013-10-03,03:30:00,19.81
2013-10-03,03:40:00,19.82
2013-10-03,03:50:00,19.82
2013-10-03,04:00:00,19.82
2013-10-03,04:10:00,19.81
2013-10-03,04:20:00,19.81
2013-10-03,04:30:00,19.82
2013-10-03,04:40:00,19.81
2013-10-03,04:50:00,19.81
2013-10-03,05:00:00,19.82
2013-10-03,05:10:00,19.82
2013-10-03,05:20:00,19.82
2013-10-03,05:30:00,19.82
2013-10-03,05:40:00,19.81
2013-10-03,05:50:00,19.82
2013-10-03,06:00:00,19.83
2013-10-03,06:10:00,19.81
2013-10-03,06:20:00,19.83
2013-10-03,06:30:00,19.85
2013-10-03,06:40:00,19.84
2013-10-03,06:50:00,19.83
2013-10-03,07:00:00,19.86
2013-10-03,07:10:00,19.87
2013-10-03,07:20:00,19.86
2013-10-03,07:30:00,19.86
2013-10-03,07:40:00,19.85
2013-10-03,07:50:00,19.84
2013-10-03,08:00:00,19.85
2013-10-03,08:10:00,19.85
2013-10-03,08:20:00,19.85
2013-10-03,08:30:00,19.85
2013-10-03,08:40:00,19.85
2013-10-03,08:50:00,19.85
2013-10-03,09:00:00,19.85
2013-10-03,09:10:00,19.85
2013-10-03,09:20:00,19.86
2013-10-03,09:30:00,19.87
2013-10-03,09:40:00,19.86
2013-10-03,09:50:00,19.87
2013-10-03,10:00:00,19.86
2013-10-03,10:10:00,19.86
2013-10-03,10:20:00,19.85
2013-10-03,10:30:00,19.86
2013-10-03,10:40:00,19.87
2013-10-03,10:50:00,19.86
2013-10-03,11:00:00,19.87
2013-10-03,11:10:00,19.87
2013-10-03,11:20:00,19.91
2013-10-03,11:30:00,19.88
2013-10-03,11:40:00,19.89
2013-10-03,11:50:00,19.83
2013-10-03,12:00:00,19.84
2013-10-03,12:10:00,19.87
2013-10-03,12:20:00,19.86
2013-10-03,12:30:00,19.85
2013-10-03,12:40:00,19.84
2013-10-03,12:50:00,19.93
2013-10-03,13:00:00,19.85
2013-10-03,13:10:00,20.03
2013-10-03,13:20:00,19.85
2013-10-03,13:30:00,19.87
2013-10-03,13:40:00,19.85
2013-10-03,13:50:00,19.89
2013-10-03,14:00:00,19.89
2013-10-03,14:10:00,19.87
2013-10-03,14:20:00,19.86
2013-10-03,14:30:00,19.82
2013-10-03,14:40:00,19.82
2013-10-03,14:50:00,19.83
2013-10-03,15:00:00,19.83
2013-10-03,15:10:00,19.83
2013-10-03,15:20:00,19.86
2013-10-03,15:30:00,19.86
2013-10-03,15:40:00,19.86
2013-10-03,15:50:00,19.86
2013-10-03,16:00:00,19.86
2013-10-03,16:10:00,19.85
2013-10-03,16:20:00,19.83
2013-10-03,16:30:00,19.83
2013-10-03,16:40:00,19.86
2013-10-03,16:50:00,19.87
2013-10-03,17:00:00,19.84
2013-10-03,17:10:00,19.83
2013-10-03,17:20:00,19.83
2013-10-03,17:30:00,19.89
2013-10-03,17:40:00,19.95
2013-10-03,17:50:00,19.87
2013-10-03,18:00:00,19.88
2013-10-03,18:10:00,19.87
2013-10-03,18:20:00,19.89
2013-10-03,18:30:00,19.87
2013-10-03,18:40:00,19.88
2013-10-03,18:50:00,19.91
2013-10-03,19:00:00,19.86
2013-10-03,19:10:00,19.82
2013-10-03,19:20:00,20.03
2013-10-03,19:30:00,19.99
2013-10-03,19:40:00,19.87
2013-10-03,19:50:00,19.91
2013-10-03,20:00:00,19.89
2013-10-03,20:10:00,19.88
2013-10-03,20:20:00,19.89
2013-10-03,20:30:00,20.67
2013-10-03,20:40:00,19.9
2013-10-03,20:50:00,19.89
2013-10-03,21:00:00,19.91
2013-10-03,21:10:00,19.89
2013-10-03,21:20:00,19.9
2013-10-03,21:30:00,19.81
2013-10-03,21:40:00,19.91
2013-10-03,21:50:00,19.84
2013-10-03,22:00:00,19.89
2013-10-03,22:10:00,20.19
2013-10-03,22:20:00,20.77
2013-10-03,22:30:00,20.73
2013-10-03,22:40:00,20.18
2013-10-03,22:50:00,20.19
2013-10-03,23:00:00,20.21
2013-10-03,23:10:00,19.84
2013-10-03,23:20:00,19.81
2013-10-03,23:30:00,19.82
2013-10-03,23:40:00,19.84
2013-10-03,23:50:00,19.86
2013-10-04,00:00:00,19.85
2013-10-04,00:10:00,19.81
2013-10-04,00:20:00,19.86
2013-10-04,00:30:00,20
2013-10-04,00:40:00,19.98
2013-10-04,00:50:00,20.73
2013-10-04,01:00:00,20.73
2013-10-04,01:10:00,20.7
2013-10-04,01:20:00,20.7
2013-10-04,01:30:00,20.69
2013-10-04,01:40:00,20.71
2013-10-04,01:50:00,20.72
2013-10-04,02:00:00,20.72
2013-10-04,02:10:00,20.73
2013-10-04,02:20:00,20.76
2013-10-04,02:30:00,20.74
2013-10-04,02:40:00,20.79
2013-10-04,02:50:00,20.77
2013-10-04,03:00:00,20.8
2013-10-04,03:10:00,21.3
2013-10-04,03:20:00,19.83
2013-10-04,03:30:00,19.8
2013-10-04,03:40:00,20.18
2013-10-04,03:50:00,19.78
2013-10-04,04:00:00,19.8
2013-10-04,04:10:00,19.83
2013-10-04,04:20:00,19.86
2013-10-04,04:30:00,19.93
2013-10-04,04:40:00,20.72
2013-10-04,04:50:00,20.79
2013-10-04,05:00:00,21.46
2013-10-04,05:10:00,21.46
2013-10-04,05:20:00,21.19
2013-10-04,05:30:00,19.81
2013-10-04,05:40:00,19.82
2013-10-04,05:50:00,19.79
2013-10-04,06:00:00,19.86
2013-10-04,06:10:00,19.85
2013-10-04,06:20:00,19.87
2013-10-04,06:30:00,19.88
2013-10-04,06:40:00,19.88
2013-10-04,06:50:00,19.88
2013-10-04,07:00:00,19.87
2013-10-04,07:10:00,19.89
2013-10-04,07:20:00,19.88
2013-10-04,07:30:00,19.86
2013-10-04,07:40:00,19.88
2013-10-04,07:50:00,19.86
2013-10-04,08:00:00,19.84
2013-10-04,08:10:00,19.83
2013-10-04,08:20:00,19.88
2013-10-04,08:30:00,19.84
2013-10-04,08:40:00,19.84
2013-10-04,08:50:00,19.89
2013-10-04,09:00:00,19.89
2013-10-04,09:10:00,19.93
2013-10-04,09:20:00,19.98
2013-10-04,09:30:00,19.95
2013-10-04,09:40:00,19.83
2013-10-04,09:50:00,19.82
2013-10-04,10:00:00,20.78
2013-10-04,10:10:00,21.11
2013-10-04,10:20:00,21.07
2013-10-04,10:30:00,21.12
2013-10-04,10:40:00,21.47
2013-10-04,10:50:00,21.14
2013-10-04,11:00:00,21.38
2013-10-04,11:10:00,20.97
2013-10-04,11:20:00,21.12
2013-10-04,11:30:00,20.75
2013-10-04,11:40:00,-
2013-10-04,11:50:00,-
2013-10-04,12:00:00,-
2013-10-04,12:10:00,-
2013-10-04,12:20:00,-
2013-10-04,12:30:00,-
2013-10-04,12:40:00,-
2013-10-04,12:50:00,-
2013-10-04,13:00:00,-
2013-10-04,13:10:00,-
2013-10-04,13:20:00,-
2013-10-04,13:30:00,-
2013-10-04,13:40:00,-
2013-10-04,13:50:00,-
2013-10-04,14:00:00,-
2013-10-04,14:10:00,-
2013-10-04,14:20:00,-
2013-10-04,14:30:00,-
2013-10-04,14:40:00,-
2013-10-04,14:50:00,-
2013-10-04,15:00:00,-
2013-10-04,15:10:00,-
2013-10-04,15:20:00,-
2013-10-04,15:30:00,-
2013-10-04,15:40:00,-
2013-10-04,15:50:00,-
2013-10-04,16:00:00,-
2013-10-04,16:10:00,-
2013-10-04,16:20:00,-
2013-10-04,16:30:00,-
2013-10-04,16:40:00,-
2013-10-04,16:50:00,-
2013-10-04,17:00:00,-
2013-10-04,17:10:00,-
2013-10-04,17:20:00,-
2013-10-04,17:30:00,-
2013-10-04,17:40:00,-
2013-10-04,17:50:00,-
2013-10-04,18:00:00,-
2013-10-04,18:10:00,-
2013-10-04,18:20:00,-
2013-10-04,18:30:00,-
2013-10-04,18:40:00,-
2013-10-04,18:50:00,-
2013-10-04,19:00:00,-
2013-10-04,19:10:00,-
2013-10-04,19:20:00,-
2013-10-04,19:30:00,-
2013-10-04,19:40:00,-
2013-10-04,19:50:00,-
2013-10-04,20:00:00,-
2013-10-04,20:10:00,-
2013-10-04,20:20:00,-
2013-10-04,20:30:00,-
2013-10-04,20:40:00,-
2013-10-04,20:50:00,-
2013-10-04,21:00:00,-
2013-10-04,21:10:00,-
2013-10-04,21:20:00,-
2013-10-04,21:30:00,-
2013-10-04,21:40:00,-
2013-10-04,21:50:00,-
2013-10-04,22:00:00,-
2013-10-04,22:10:00,-
2013-10-04,22:20:00,-
2013-10-04,22:30:00,-
2013-10-04,22:40:00,-
2013-10-04,22:50:00,-
2013-10-04,23:00:00,-
2013-10-04,23:10:00,-
2013-10-04,23:20:00,-
2013-10-04,23:30:00,-
2013-10-04,23:40:00,-
2013-10-04,23:50:00,-
2013-10-05,00:00:00,19.8
2013-10-05,00:10:00,19.8
2013-10-05,00:20:00,19.8
2013-10-05,00:30:00,19.79
2013-10-05,00:40:00,19.79
2013-10-05,00:50:00,19.78
2013-10-05,01:00:00,19.98
2013-10-05,01:10:00,19.77
2013-10-05,01:20:00,19.89
2013-10-05,01:30:00,19.89
2013-10-05,01:40:00,19.89
2013-10-05,01:50:00,19.9
2013-10-05,02:00:00,19.88
2013-10-05,02:10:00,19.75
2013-10-05,02:20:00,19.75
2013-10-05,02:30:00,19.88
2013-10-05,02:40:00,19.92
2013-10-05,02:50:00,19.88
2013-10-05,03:00:00,19.88
2013-10-05,03:10:00,19.89
2013-10-05,03:20:00,19.87
2013-10-05,03:30:00,19.84
2013-10-05,03:40:00,19.85
2013-10-05,03:50:00,19.85
2013-10-05,04:00:00,19.87
2013-10-05,04:10:00,19.87
2013-10-05,04:20:00,19.85
2013-10-05,04:30:00,19.86
2013-10-05,04:40:00,19.87
2013-10-05,04:50:00,19.87
2013-10-05,05:00:00,19.86
2013-10-05,05:10:00,19.86
2013-10-05,05:20:00,19.86
2013-10-05,05:30:00,19.87
2013-10-05,05:40:00,19.88
2013-10-05,05:50:00,19.88
2013-10-05,06:00:00,19.88
2013-10-05,06:10:00,19.87
2013-10-05,06:20:00,19.87
2013-10-05,06:30:00,19.9
2013-10-05,06:40:00,19.9
2013-10-05,06:50:00,19.87
2013-10-05,07:00:00,19.96
2013-10-05,07:10:00,19.86
2013-10-05,07:20:00,19.87
2013-10-05,07:30:00,19.83
2013-10-05,07:40:00,19.84
2013-10-05,07:50:00,19.86
2013-10-05,08:00:00,19.85
2013-10-05,08:10:00,19.84
2013-10-05,08:20:00,19.85
2013-10-05,08:30:00,19.83
2013-10-05,08:40:00,19.83
2013-10-05,08:50:00,19.85
2013-10-05,09:00:00,19.86
2013-10-05,09:10:00,19.87
2013-10-05,09:20:00,19.84
2013-10-05,09:30:00,19.87
2013-10-05,09:40:00,19.83
2013-10-05,09:50:00,19.79
2013-10-05,10:00:00,19.83
2013-10-05,10:10:00,19.83
2013-10-05,10:20:00,19.84
2013-10-05,10:30:00,19.85
2013-10-05,10:40:00,19.86
2013-10-05,10:50:00,19.87
2013-10-05,11:00:00,19.89
2013-10-05,11:10:00,19.9
2013-10-05,11:20:00,19.91
2013-10-05,11:30:00,19.92
2013-10-05,11:40:00,19.93
2013-10-05,11:50:00,19.95
2013-10-05,12:00:00,19.96
2013-10-05,12:10:00,19.97
2013-10-05,12:20:00,19.97
2013-10-05,12:30:00,19.99
2013-10-05,12:40:00,20
2013-10-05,12:50:00,20.01
2013-10-05,13:00:00,20.02
2013-10-05,13:10:00,20.02
2013-10-05,13:20:00,20.04
2013-10-05,13:30:00,20.05
2013-10-05,13:40:00,20.05
2013-10-05,13:50:00,20.06
2013-10-05,14:00:00,20.07
2013-10-05,14:10:00,20.09
2013-10-05,14:20:00,20.09
2013-10-05,14:30:00,20.1
2013-10-05,14:40:00,20.1
2013-10-05,14:50:00,20.11
2013-10-05,15:00:00,20.12
2013-10-05,15:10:00,20.13
2013-10-05,15:20:00,20.13
2013-10-05,15:30:00,20.14
2013-10-05,15:40:00,20.15
2013-10-05,15:50:00,20.15
2013-10-05,16:00:00,20.16
2013-10-05,16:10:00,20.16
2013-10-05,16:20:00,20.17
2013-10-05,16:30:00,20.18
2013-10-05,16:40:00,20.18
2013-10-05,16:50:00,20.19
2013-10-05,17:00:00,20.19
2013-10-05,17:10:00,20.2
2013-10-05,17:20:00,20.2
2013-10-05,17:30:00,20.2
2013-10-05,17:40:00,20.21
2013-10-05,17:50:00,20.21
2013-10-05,18:00:00,20.22
2013-10-05,18:10:00,20.21
2013-10-05,18:20:00,20.22
2013-10-05,18:30:00,20.23
2013-10-05,18:40:00,20.22
2013-10-05,18:50:00,20.22
2013-10-05,19:00:00,20.22
2013-10-05,19:10:00,20.23
2013-10-05,19:20:00,20.23
2013-10-05,19:30:00,20.23
2013-10-05,19:40:00,20.23
2013-10-05,19:50:00,20.23
2013-10-05,20:00:00,20.23
2013-10-05,20:10:00,20.23
2013-10-05,20:20:00,20.23
2013-10-05,20:30:00,20.24
2013-10-05,20:40:00,20.24
2013-10-05,20:50:00,20.24
2013-10-05,21:00:00,20.24
2013-10-05,21:10:00,20.24
2013-10-05,21:20:00,20.24
2013-10-05,21:30:00,20.24
2013-10-05,21:40:00,20.24
2013-10-05,21:50:00,20.24
2013-10-05,22:00:00,20.24
2013-10-05,22:10:00,20.23
2013-10-05,22:20:00,20.24
2013-10-05,22:30:00,20.23
2013-10-05,22:40:00,20.24
2013-10-05,22:50:00,20.24
2013-10-05,23:00:00,20.24
2013-10-05,23:10:00,20.24
2013-10-05,23:20:00,20.24
2013-10-05,23:30:00,20.24
2013-10-05,23:40:00,20.24
2013-10-05,23:50:00,20.24
2013-10-06,00:00:00,20.24
2013-10-06,00:10:00,20.24
2013-10-06,00:20:00,20.24
2013-10-06,00:30:00,20.24
2013-10-06,00:40:00,20.24
2013-10-06,00:50:00,20.24
2013-10-06,01:00:00,20.24
2013-10-06,01:10:00,20.24
2013-10-06,01:20:00,20.24
2013-10-06,01:30:00,20.24
2013-10-06,01:40:00,20.24
2013-10-06,01:50:00,20.24
2013-10-06,02:00:00,20.24
2013-10-06,02:10:00,20.24
2013-10-06,02:20:00,20.23
2013-10-06,02:30:00,20.23
2013-10-06,02:40:00,20.23
2013-10-06,02:50:00,20.23
2013-10-06,03:00:00,20.23
2013-10-06,03:10:00,20.23
2013-10-06,03:20:00,20.23
2013-10-06,03:30:00,20.23
2013-10-06,03:40:00,20.22
2013-10-06,03:50:00,20.22
2013-10-06,04:00:00,20.22
2013-10-06,04:10:00,20.22
2013-10-06,04:20:00,20.22
2013-10-06,04:30:00,20.22
2013-10-06,04:40:00,20.22
2013-10-06,04:50:00,20.21
2013-10-06,05:00:00,20.21
2013-10-06,05:10:00,20.21
2013-10-06,05:20:00,20.21
2013-10-06,05:30:00,20.21
2013-10-06,05:40:00,20.21
2013-10-06,05:50:00,20.21
2013-10-06,06:00:00,20.2
2013-10-06,06:10:00,20.2
2013-10-06,06:20:00,20.19
2013-10-06,06:30:00,20.19
2013-10-06,06:40:00,20.19
2013-10-06,06:50:00,20.19
2013-10-06,07:00:00,20.19
2013-10-06,07:10:00,20.18
2013-10-06,07:20:00,20.19
2013-10-06,07:30:00,20.18
2013-10-06,07:40:00,20.18
2013-10-06,07:50:00,20.18
2013-10-06,08:00:00,20.18
2013-10-06,08:10:00,20.17
2013-10-06,08:20:00,20.17
2013-10-06,08:30:00,20.17
2013-10-06,08:40:00,20.17
2013-10-06,08:50:00,20.16
2013-10-06,09:00:00,20.16
2013-10-06,09:10:00,20.16
2013-10-06,09:20:00,20.16
2013-10-06,09:30:00,20.15
2013-10-06,09:40:00,20.15
2013-10-06,09:50:00,20.15
2013-10-06,10:00:00,20.15
2013-10-06,10:10:00,20.14
2013-10-06,10:20:00,20.14
2013-10-06,10:30:00,20.14
2013-10-06,10:40:00,20.14
2013-10-06,10:50:00,20.13
2013-10-06,11:00:00,20.13
2013-10-06,11:10:00,20.13
2013-10-06,11:20:00,20.13
2013-10-06,11:30:00,20.13
2013-10-06,11:40:00,20.13
2013-10-06,11:50:00,20.12
2013-10-06,12:00:00,20.12
2013-10-06,12:10:00,20.12
2013-10-06,12:20:00,20.11
2013-10-06,12:30:00,20.11
2013-10-06,12:40:00,20.11
2013-10-06,12:50:00,20.11
2013-10-06,13:00:00,20.1
2013-10-06,13:10:00,20.11
2013-10-06,13:20:00,20.1
2013-10-06,13:30:00,20.1
2013-10-06,13:40:00,20.1
2013-10-06,13:50:00,20.09
2013-10-06,14:00:00,20.09
2013-10-06,14:10:00,20.09
2013-10-06,14:20:00,20.09
2013-10-06,14:30:00,20.08
2013-10-06,14:40:00,20.08
2013-10-06,14:50:00,20.08
2013-10-06,15:00:00,20.08
2013-10-06,15:10:00,20.07
2013-10-06,15:20:00,20.07
2013-10-06,15:30:00,20.07
2013-10-06,15:40:00,20.07
2013-10-06,15:50:00,20.07
2013-10-06,16:00:00,20.07
2013-10-06,16:10:00,20.07
2013-10-06,16:20:00,20.07
2013-10-06,16:30:00,20.07
2013-10-06,16:40:00,20.06
2013-10-06,16:50:00,20.06
2013-10-06,17:00:00,20.06
2013-10-06,17:10:00,20.06
2013-10-06,17:20:00,20.06
2013-10-06,17:30:00,20.06
2013-10-06,17:40:00,20.05
2013-10-06,17:50:00,20.05
2013-10-06,18:00:00,20.05
2013-10-06,18:10:00,20.05
2013-10-06,18:20:00,20.05
2013-10-06,18:30:00,20.05
2013-10-06,18:40:00,20.05
2013-10-06,18:50:00,20.04
2013-10-06,19:00:00,20.04
2013-10-06,19:10:00,20.04
2013-10-06,19:20:00,20.03
2013-10-06,19:30:00,20.03
2013-10-06,19:40:00,20.03
2013-10-06,19:50:00,20.04
2013-10-06,20:00:00,20.04
2013-10-06,20:10:00,20.03
2013-10-06,20:20:00,20.03
2013-10-06,20:30:00,20.03
2013-10-06,20:40:00,20.03
2013-10-06,20:50:00,-
2013-10-06,21:00:00,-
2013-10-06,21:10:00,-
2013-10-06,21:20:00,-
2013-10-06,21:30:00,-
2013-10-06,21:40:00,-
2013-10-06,21:50:00,-
2013-10-06,22:00:00,-
2013-10-06,22:10:00,-
2013-10-06,22:20:00,-
2013-10-06,22:30:00,-
2013-10-06,22:40:00,-
2013-10-06,22:50:00,-
2013-10-06,23:00:00,-
2013-10-06,23:10:00,-
2013-10-06,23:20:00,-
2013-10-06,23:30:00,-
2013-10-06,23:40:00,-
2013-10-06,23:50:00,-
2013-10-07,00:00:00,20
2013-10-07,00:10:00,20
2013-10-07,00:20:00,20
2013-10-07,00:30:00,20
2013-10-07,00:40:00,20
2013-10-07,00:50:00,20
2013-10-07,01:00:00,20
2013-10-07,01:10:00,20
2013-10-07,01:20:00,20
2013-10-07,01:30:00,19.99
2013-10-07,01:40:00,20
2013-10-07,01:50:00,20
2013-10-07,02:00:00,19.99
2013-10-07,02:10:00,19.99
2013-10-07,02:20:00,19.99
2013-10-07,02:30:00,19.99
2013-10-07,02:40:00,19.99
2013-10-07,02:50:00,20
2013-10-07,03:00:00,19.99
2013-10-07,03:10:00,20
2013-10-07,03:20:00,19.99
2013-10-07,03:30:00,19.99
2013-10-07,03:40:00,19.99
2013-10-07,03:50:00,19.99
2013-10-07,04:00:00,19.99
2013-10-07,04:10:00,19.99
2013-10-07,04:20:00,20
2013-10-07,04:30:00,20
2013-10-07,04:40:00,20
2013-10-07,04:50:00,20
2013-10-07,05:00:00,20
2013-10-07,05:10:00,19.99
2013-10-07,05:20:00,20
2013-10-07,05:30:00,20
2013-10-07,05:40:00,20
2013-10-07,05:50:00,20
2013-10-07,06:00:00,20
2013-10-07,06:10:00,20
2013-10-07,06:20:00,20
2013-10-07,06:30:00,20
2013-10-07,06:40:00,20.01
2013-10-07,06:50:00,20.01
2013-10-07,07:00:00,20.01
2013-10-07,07:10:00,20.02
2013-10-07,07:20:00,20.01
2013-10-07,07:30:00,20.02
2013-10-07,07:40:00,20.03
2013-10-07,07:50:00,20.02
2013-10-07,08:00:00,20.02
2013-10-07,08:10:00,20.02
2013-10-07,08:20:00,20.02
2013-10-07,08:30:00,20.03
2013-10-07,08:40:00,20.04
2013-10-07,08:50:00,20.04
2013-10-07,09:00:00,20.04
2013-10-07,09:10:00,20.04
2013-10-07,09:20:00,20.04
2013-10-07,09:30:00,20.05
2013-10-07,09:40:00,20.05
2013-10-07,09:50:00,20.05
2013-10-07,10:00:00,20.06
2013-10-07,10:10:00,20.06
2013-10-07,10:20:00,20.07
2013-10-07,10:30:00,20.07
2013-10-07,10:40:00,20.07
2013-10-07,10:50:00,20.08
2013-10-07,11:00:00,20.09
2013-10-07,11:10:00,20.09
2013-10-07,11:20:00,20.09
2013-10-07,11:30:00,20.1
2013-10-07,11:40:00,20.11
2013-10-07,11:50:00,20.11
2013-10-07,12:00:00,20.12
2013-10-07,12:10:00,20.12
2013-10-07,12:20:00,20.13
2013-10-07,12:30:00,20.14
2013-10-07,12:40:00,20.15